Location: ???????????
(54.6970°N, 39.1477°E)
Time: 02:18:04
(UTC+00:00)

Cosmos 1515 Rocket - Pass Details

Date: 19 May 2025
Orbit: 601 x 622 km, 82.5° (Epoch: 13 June)

Event Time Altitude Azimuth Distance (km) Brightness Sun altitude
Exits shadow 23:14:53 15° 224° (SW) 1,641 5.1 -11.4°
Maximum altitude 23:18:07 40° 290° (WNW) 909 4.3 -11.2°
Drops below altitude 10° 23:22:16 10° 0° (N) 1,990 7.2 -10.9°
Sets 23:24:38 0° 8° (N) 2,904 8.5 -10.7°
